Location: Aldenham
(51.6667°N, 0.3500°W)
Time: 20:19:30
(UTC+00:00)

Transit 2A Rocket - Visible Passes

Search period start: 14 February 2026 00:00
Search period end: 24 February 2026 00:00
Orbit: 582 x 901 km, 66.7° (Epoch: 13 February)

Date Brightness Start Highest point End Pass type
(mag) Time Alt. Az. Time Alt. Az. Time Alt. Az.
14 Feb 6.2 18:25:38 10° WSW 18:31:29 48° NW 18:37:13 10° NNE visible
14 Feb 7.2 20:10:42 10° WNW 20:15:17 22° NNW 20:18:09 16° NNE visible
14 Feb 7.7 21:55:42 10° NW 21:57:50 16° NNW 21:57:50 16° NNW visible
15 Feb 7.0 19:24:07 10° W 19:29:07 26° NNW 19:33:50 10° NNE visible
15 Feb 7.3 21:09:30 10° NW 21:13:29 18° N 21:13:32 18° N visible
15 Feb 8.1 22:53:02 10° NNW 22:53:13 11° NNW 22:53:13 11° NNW visible
16 Feb 6.7 18:37:37 10° W 18:43:01 33° NNW 18:48:18 10° NNE visible
16 Feb 7.2 20:23:04 10° NW 20:27:12 19° N 20:29:11 16° NNE visible
16 Feb 7.7 22:07:15 10° NNW 22:08:54 16° NNW 22:08:54 16° NNW visible
17 Feb 6.3 17:51:17 10° WSW 17:57:03 44° NW 18:02:41 10° NNE visible
17 Feb 7.2 19:36:30 10° WNW 19:40:56 21° NNW 19:44:51 11° NNE visible
17 Feb 7.3 21:21:20 10° NW 21:24:32 18° N 21:24:32 18° N visible
17 Feb 8.2 23:04:13 10° NNW 23:04:14 10° NNW 23:04:14 10° NNW visible
18 Feb 7.1 18:49:54 10° WNW 18:54:44 24° NNW 18:59:26 10° NNE visible
18 Feb 7.2 20:35:12 10° NW 20:39:09 18° N 20:40:10 17° NNE visible
18 Feb 7.7 22:18:34 10° NNW 22:19:51 15° NNW 22:19:51 15° NNW visible
19 Feb 6.8 18:03:21 10° W 18:08:37 30° NNW 18:13:46 10° NNE visible
19 Feb 7.2 19:48:50 10° NW 19:52:52 18° N 19:55:47 13° NNE visible
19 Feb 7.3 21:32:49 10° NNW 21:35:28 19° N 21:35:28 19° N visible
20 Feb 7.2 19:02:17 10° WNW 19:06:35 20° NNW 19:10:45 10° NNE visible
20 Feb 7.1 20:46:56 10° NNW 20:51:05 20° NNE 20:51:05 20° NNE visible
20 Feb 7.8 22:29:43 10° NNW 22:30:47 15° NNW 22:30:47 15° NNW visible
21 Feb 7.1 18:15:40 10° WNW 18:20:22 23° NNW 18:24:55 10° NNE visible
21 Feb 7.1 20:00:52 10° NW 20:04:49 18° N 20:06:42 16° NNE visible
21 Feb 7.3 21:44:04 10° NNW 21:46:23 21° NNW 21:46:23 21° NNW visible
22 Feb 7.2 19:14:34 10° NW 19:18:31 18° N 19:22:19 10° NE visible
22 Feb 6.9 20:58:21 10° NNW 21:02:00 23° N 21:02:00 23° N visible
22 Feb 7.8 22:40:51 10° NW 22:41:41 14° NW 22:41:41 14° NW visible
23 Feb 7.2 18:28:03 10° NW 18:32:14 19° NNW 18:36:16 10° NE visible
23 Feb 6.9 20:12:31 10° NNW 20:16:44 20° NNE 20:17:36 19° NNE visible
23 Feb 7.3 21:55:12 10° NNW 21:57:18 21° NNW 21:57:18 21° NNW visible
